Vancouver, WA
on Wednesday, November 21, 2012

Wednesday
Previous Day Next Day
Daily Summary
 ActualAverageRecord
Temperature
Mean Temperature °F 45°F  
Max Temperature 50°F 52°F 65°F (1917)
Min Temperature 37°F 39°F 15°F (1900)
Degree Days
Heating Degree Days 21    
Month to date heating degree days 314  
Since 1 July heating degree days 633  
Cooling Degree Days 0    
Month to date cooling degree days 0  
Year to date cooling degree days 398  
Moisture
Dew Point 40°F   
Average Humidity 77    
Maximum Humidity 92    
Minimum Humidity 61    
Precipitation
Precipitation 0.30 in 0.20 in 1.35 in (1974)
Month to date precipitation 4.92 3.93  
Year to date precipitation 36.08 30.39  
Snow
Snow 0.00 in in in ()
Month to date snowfall 0.0  
Snow Depth 0.00 in   
Wind
Wind Speed 4 mph   
Max Wind Speed 14 mph   
Max Gust Speed 23 mph   
Visibility 10 miles   
Events Rain   

Key: T is trace of precipitation, MM is missing value
Source: NWS Daily Summary
Time(PST)TemperatureDew PointHumidity Pressure Visibility Wind DirectionWind SpeedGust SpeedPrecipitationEvents Conditions
12:53 AM 48.0°F 43.0°F 83% 29.62 in 8.0 miles South 6.9 mph 17.3 mph 0.13 in Rain Light Rain
1:53 AM 46.9°F 43.0°F 86% 29.67 in 8.0 miles South 4.6 mph - 0.02 in Rain Light Rain
2:53 AM 46.0°F 42.1°F 86% 29.69 in 10.0 miles SSE 6.9 mph - 0.01 in   Clear
3:53 AM 46.0°F 41.0°F 83% 29.72 in 10.0 miles South 5.8 mph - 0.00 in   Partly Cloudy
4:53 AM 46.9°F 41.0°F 80% 29.77 in 10.0 miles South 8.1 mph - N/A   Mostly Cloudy
5:53 AM 46.9°F 41.0°F 80% 29.82 in 9.0 miles South 3.5 mph - 0.04 in Rain Light Rain
6:53 AM 46.0°F 41.0°F 83% 29.86 in 10.0 miles South 3.5 mph - 0.01 in Rain Light Rain
7:53 AM 46.0°F 41.0°F 83% 29.89 in 10.0 miles SSE 8.1 mph - N/A   Mostly Cloudy
9:53 AM 46.9°F 41.0°F 80% 29.96 in 10.0 miles South 6.9 mph - 0.02 in   Mostly Cloudy
10:53 AM 46.9°F 39.9°F 77% 29.99 in 10.0 miles South 4.6 mph - 0.02 in Rain Light Rain
11:53 AM 46.0°F 39.0°F 76% 29.99 in 10.0 miles Variable 5.8 mph - 0.05 in Rain Light Rain
12:53 PM 48.9°F 39.9°F 71% 30.03 in 10.0 miles South 6.9 mph 17.3 mph 0.00 in   Scattered Clouds
1:53 PM 48.9°F 41.0°F 74% 30.05 in 10.0 miles SSW 3.5 mph - 0.00 in   Overcast
2:53 PM 50.0°F 39.9°F 68% 30.08 in 10.0 miles South 5.8 mph - 0.01 in   Partly Cloudy
3:53 PM 50.0°F 37.9°F 63% 30.13 in 10.0 miles SW 5.8 mph - N/A   Overcast
4:53 PM 48.0°F 37.9°F 68% 30.17 in 10.0 miles South 3.5 mph - N/A   Partly Cloudy
5:53 PM 48.0°F 37.9°F 68% 30.21 in 10.0 miles WSW 5.8 mph - N/A   Partly Cloudy
6:53 PM 46.0°F 39.0°F 76% 30.25 in 10.0 miles Calm Calm - N/A   Overcast
7:53 PM 44.1°F 39.0°F 82% 30.27 in 10.0 miles Calm Calm - N/A   Scattered Clouds
8:53 PM 39.9°F 37.9°F 93% 30.28 in 10.0 miles Calm Calm - N/A   Mostly Cloudy
9:53 PM 37.0°F 35.1°F 93% 30.30 in 10.0 miles Calm Calm - N/A   Clear
10:53 PM 39.0°F 36.0°F 89% 30.32 in 10.0 miles Calm Calm - N/A   Clear
11:53 PM 39.0°F 37.0°F 93% 30.33 in 10.0 miles Calm Calm - N/A   Clear
Moon Phase
Nov. 21 Nov. 28 Dec. 06 Dec. 13 Dec. 20
Sunrise:07:18 AM (PST) Moon Rise:01:09 PM (PST)11/21
Sunset:04:33 PM (PST) Moon Set:12:25 AM (PST)11/21

Copyright © 2014 The Weather Underground, Inc.